SCP
0 0 0 0 0 0 0 0 0 0 0 0 0 0 0 0 0 0 0 0 0 0 0 0 0 0 0 0 0 0 0 0 0 0 0 0 0 0 0 0 0 0 0 0 0 0 0 0 0
0 0 0 0 0 0 0 0 0 0 0 0 0 0 0 0 0 0 0 0 0 0 0 0 0 0 0 0 0 0 0 0 0 0 0 0 0 0 0 0 0 0 0 0 0 0 0 0 0
0 0 0 0 0 0 0 0 0 0 0 0 0 0 0 0 0 0 0 0 0 0 0 0 0 0 0 0 0 0 0 0 0 0 0 0 0 0 0 0 0 0 0 0 0 0 0 0 0
0 0 0 0 0 0 0 0 0 0 0 0 0 0 0 0 0 0 0 0 0 0 0 0 0 0 0 0 0 0 0 0 0 0 0 0 0 0 0 0 0 0 0 0 0 0 0 0 0
0 0 0 0 0 0 0 0 0 0 0 0 0 0 0 0 0 0 0 0 0 0 0 0 0 0 0 0 0 0 0 0 0 0 0 0 0 0 0 0 0 0 0 0 0 0 0 0 0
0 0 0 0 0 0 0 0 0 0 0 0 0 0 0 0 0 0 0 0 0 0 0 0 0 0 0 0 0 0 0 0 0 0 0 0 0 0 0 0 0 0 0 0 0 0 0 0 0
0 0 0 0 0 0 0 0 0 0 0 0 0 0 0 0 0 0 0 0 0 0 0 0 0 0 0 0 0 0 0 0 0 0 0 0 0 0 0 0 0 0 0 0 0 0 0 0 0
0 0 0 0 0 0 0 0 0 0 0 0 0 0 0 0 0 0 0 0 0 0 0 0 0 0 0 0 0 0 0 0 0 0 0 0 0 0 0 0 0 0 0 0 0 0 0 0 0
0 0 0 0 0 0 0 0 0 0 0 0 0 0 0 0 0 0 0 0 0 0 0 0 0 0 0 0 0 0 0 0 0 0 0 0 0 0 0 0 0 0 0 0 0 0 0 0 0
0 0 0 0 0 0 0 0 0 0 0 0 0 0 0 0 0 0 0 0 0 0 0 0 0 0 0 0 0 0 0 0 0 0 0 0 0 0 0 0 0 0 0 0 0 0 0 0 0
0 0 0 0 0 0 0 0 0 0 0 0 0 0 0 0 0 0 0 0 0 0 0 0 0 0 0 0 0 0 0 0 0 0 0 0 0 0 0 0 0 0 0 0 0 0 0 0 0
0 0 0 0 0 0 0 0 0 0 0 0 0 0 0 0 0 0 0 0 0 0 0 0 0 0 0 0 0 0 0 0 0 0 0 0 0 0 0 0 0 0 0 0 0 0 0 0 0
0 0 0 0 0 0 0 0 0 0 0 0 0 0 0 0 0 0 0 0 0 0 0 0 0 0 0 0 0 0 0 0 0 0 0 0 0 0 0 0 0 0 0 0 0 0 0 0 0
0 0 0 0 0 0 0 0 0 0 0 0 0 0 0 0 0 0 0 0 0 0 0 0 0 0 0 0 0 0 0 0 0 0 0 0 0 0 0 0 0 0 0 0 0 0 0 0 0
0 0 0 0 0 0 0 0 0 0 0 0 0 0 0 0 0 0 0 0 0 0 0 0 0 0 0 0 0 0 0 0 0 0 0 0 0 0 0 0 0 0 0 0 0 0 0 0 0
0 0 0 0 0 0 0 0 0 0 0 0 0 0 0 0 0 0 0 0 0 0 0 0 0 0 0 0 0 0 0 0 0 0 0 0 0 0 0 0 0 0 0 0 0 0 0 0 0
0 0 0 0 0 0 0 0 0 0 0 0 0 0 0 0 0 0 0 0 0 0 0 0 0 0 0 0 0 0 0 0 0 0 0 0 0 0 0 0 0 0 0 0 0 0 0 0 0
0 0 0 0 0 0 0 0 0 0 0 0 0 0 0 0 0 0 0 0 0 0 0 0 0 0 0 0 0 0 0 0 0 0 0 0 0 0 0 0 0 0 0 0 0 0 0 0 0
0 0 0 0 0 0 0 0 0 0 0 0 0 0 0 0 0 0 0 0 0 0 0 0 0 0 0 0 0 0 0 0 0 0 0 0 0 0 0 0 0 0 0 0 0 0 0 0 0
0 0 0 0 0 0 0 0 0 0 0 0 0 0 0 0 0 0 0 0 0 0 0 0 0 0 0 0 0 0 0 0 0 0 0 0 0 0 0 0 0 0 0 0 0 0 0 0 0
0 0 0 0 0 0 0 0 0 0 0 0 0 0 0 0 0 0 0 0 0 0 0 0 0 0 0 0 0 0 0 0 0 0 0 0 0 0 0 0 0 0 0 0 0 0 0 0 0
0 0 0 0 0 0 0 0 0 0 0 0 0 0 0 0 0 0 0 0 0 0 0 0 0 0 0 0 0 0 0 0 0 0 0 0 0 0 0 0 0 0 0 0 0 0 0 0 0
0 0 0 0 0 0 0 0 0 0 0 0 0 0 0 0 0 0 0 0 0 0 0 0 0 0 0 0 0 0 0 0 0 0 0 0 0 0 0 0 0 0 0 0 0 0 0 0 0
0 0 0 0 0 0 0 0 0 0 0 0 0 0 0 0 0 0 0 0 0 0 0 0 0 0 0 0 0 0 0 0 0 0 0 0 0 0 0 0 0 0 0 0 0 0 0 0 0
0 0 0 0 0 0 0 0 0 0 0 0 0 0 0 0 0 0 0 0 0 0 0 0 0 0 0 0 0 0 0 0 0 0 0 0 0 0 0 0 0 0 0 0 0 0 0 0 0
0 0 0 0 0 0 0 0 0 0 0 0 0 0 0 0 0 0 0 0 0 0 0 0 0 0 0 0 0 0 0 0 0 0 0 0 0 0 0 0 0 0 0 0 0 0 0 0 0
0 0 0 0 0 0 0 0 0 0 0 0 0 0 0 0 0 0 0 0 0 0 0 0 0 0 0 0 0 0 0 0 0 0 0 0 0 0 0 0 0 0 0 0 0 0 0 0 0
0 0 0 0 0 0 0 0 0 0 0 0 0 0 0 0 0 0 0 0 0 0 0 0 0 0 0 0 0 0 0 0 0 0 0 0 0 0 0 0 0 0 0 0 0 0 0 0 0
0 0 0 0 0 0 0 0 0 0 0 0 0 0 0 0 0 0 0 0 0 0 0 0 0 0 0 0 0 0 0 0 0 0 0 0 0 0 0 0 0 0 0 0 0 0 0 0 0
0 0 0 0 0 0 0 0 0 0 0 0 0 0 0 0 0 0 0 0 0 0 0 0 0 0 0 0 0 0 0 0 0 0 0 0 0 0 0 0 0 0 0 0 0 0 0 0 0
Wind_Speed
5 4 3 2 2 1 2 3 2 4 4 3 3 3 3 1 1 4 7 11 12 13 13 12 10 12 13 12 12 12 13 14 14 15 15 15 15 16 16 16 16 16 17 17 18 18 17 17 17
4 3 2 2 3 3 3 3 5 4 5 6 4 3 3 3 3 6 8 11 13 13 12 12 11 12 13 12 12 12 13 14 14 15 15 15 15 15 15 15 15 16 16 17 17 17 17 16 16
2 3 2 1 3 3 2 3 4 5 6 4 4 2 1 3 5 7 8 13 13 12 11 12 11 12 13 12 12 12 12 13 14 15 14 14 15 15 15 15 15 15 16 16 16 16 16 16 16
2 0 1 3 3 1 0 2 6 9 6 3 4 5 4 3 5 6 11 13 13 12 12 13 11 12 12 12 12 12 12 13 14 14 14 14 14 14 14 14 15 15 15 15 15 15 15 15 15
1 1 3 4 3 1 1 2 8 10 7 5 5 4 5 4 4 10 13 13 13 12 11 13 10 11 11 12 12 12 12 13 13 14 14 14 14 13 14 14 14 14 14 14 14 14 14 14 14
1 1 5 7 5 2 2 5 9 8 6 5 6 6 5 3 7 12 12 12 12 11 11 12 10 10 10 10 11 11 11 11 12 13 13 13 13 13 13 13 13 13 13 13 13 13 13 13 12
2 3 6 6 5 4 2 6 8 8 8 7 6 6 5 6 8 11 11 10 10 11 10 11 11 11 10 9 10 10 10 10 11 12 12 11 11 12 12 12 12 12 12 12 12 12 12 12 11
2 3 5 6 6 4 4 6 3 6 5 5 6 5 6 9 11 11 10 10 9 9 10 10 10 10 11 10 10 10 10 10 11 11 11 11 11 11 9 10 11 12 12 12 11 11 11 10 10
2 5 8 7 6 3 5 6 3 0 5 5 3 0 4 15 14 12 10 10 10 9 9 9 10 9 9 9 10 10 10 10 11 10 10 8 8 8 7 10 10 10 10 10 10 10 9 7 8
4 8 10 4 4 2 5 5 6 6 7 6 5 3 8 16 15 15 14 14 13 12 11 9 10 10 9 8 8 7 7 8 7 7 8 5 5 5 7 10 9 9 8 9 9 7 5 2 3
6 8 6 4 3 2 3 4 5 7 8 9 10 12 15 16 16 16 15 15 14 13 12 10 10 9 9 7 6 5 4 5 6 7 7 5 5 5 5 5 5 6 5 5 5 4 3 3 3
5 6 5 4 3 3 3 4 6 9 7 1 6 14 18 19 19 18 17 15 14 14 13 11 10 9 9 8 6 6 5 5 5 6 7 5 4 4 4 3 4 3 3 3 2 2 3 2 3
8 6 4 3 4 3 3 5 5 8 8 2 5 14 19 20 19 17 15 14 14 14 14 13 12 11 9 8 6 6 6 6 6 6 6 6 4 4 4 3 3 3 3 2 2 1 1 1 2
9 7 5 4 4 3 5 5 6 9 5 6 10 14 17 19 19 17 16 16 15 15 14 13 13 12 11 8 7 6 6 6 6 6 7 7 5 4 4 4 3 3 2 2 1 0 1 1 2
5 6 7 6 5 4 3 9 11 8 6 9 11 13 15 17 18 19 18 17 16 15 14 14 14 13 12 11 9 7 6 6 6 6 7 7 6 6 5 4 4 3 3 2 2 1 1 2 2
7 8 11 8 8 6 7 15 10 6 9 11 11 12 13 15 18 17 17 16 16 15 15 15 12 13 13 11 10 7 7 7 7 6 7 8 8 7 5 4 4 4 3 3 2 2 2 2 2
10 13 15 10 7 7 10 14 8 5 9 11 11 11 12 14 16 17 17 16 16 16 16 15 15 15 14 12 9 8 7 8 7 7 7 8 9 8 6 5 4 5 4 3 3 3 2 2 3
14 14 12 15 8 9 12 16 13 7 8 11 10 10 12 14 17 16 17 16 15 15 15 15 15 15 13 10 8 7 8 7 7 7 8 10 9 9 8 5 6 6 4 4 4 4 2 2 2
12 15 15 12 6 9 15 19 19 15 12 13 13 12 13 15 14 13 15 15 15 15 16 16 16 15 13 10 9 8 8 8 8 8 10 11 10 10 9 6 7 6 6 6 5 4 4 2 1
13 15 15 7 4 7 11 19 19 18 17 17 17 16 15 13 12 13 15 16 17 18 17 17 17 16 15 12 10 7 8 8 9 8 10 12 11 11 9 10 7 7 6 6 6 5 3 2 2
16 17 14 7 4 4 7 17 21 20 18 17 17 17 16 15 15 15 16 18 18 19 19 16 18 18 18 16 10 7 7 5 7 9 9 11 12 12 11 11 9 8 8 7 7 7 6 4 3
16 12 10 8 7 6 6 12 16 16 19 20 19 18 18 17 16 15 16 18 20 20 18 19 19 19 18 17 14 15 12 12 12 10 10 11 13 13 12 11 11 9 8 8 7 7 6 5 4
8 9 8 6 7 6 8 11 13 10 17 19 20 21 21 19 18 18 18 19 19 19 18 18 19 19 19 19 18 18 16 13 10 10 12 12 11 12 12 12 10 10 8 8 8 8 7 5 5
12 10 7 3 3 12 17 14 16 12 16 15 16 19 20 20 20 19 17 16 16 16 16 17 19 20 20 20 20 20 19 17 14 14 12 10 8 9 12 11 10 10 8 9 8 8 8 6 6
15 12 6 7 9 12 8 14 17 10 12 15 16 17 18 18 19 18 18 17 17 17 18 18 20 21 21 21 21 21 21 19 19 16 14 12 9 9 11 11 10 9 9 8 8 7 7 7 7
20 18 12 11 10 7 6 15 13 7 10 12 14 14 13 14 15 16 17 17 17 17 18 19 21 21 21 21 21 20 20 15 14 16 13 13 10 10 12 12 11 10 9 8 8 6 6 6 6
17 16 6 2 2 4 10 11 12 8 11 14 15 15 16 15 13 14 13 14 14 15 17 19 20 20 20 21 20 19 19 18 16 15 15 12 10 9 12 12 11 10 10 9 8 6 7 7 6
12 12 7 8 8 10 10 12 11 5 12 15 16 17 15 12 11 12 11 11 11 12 12 14 17 18 18 18 18 14 18 18 16 13 14 12 12 11 12 12 11 10 10 9 8 7 7 8 7
14 14 11 10 7 8 9 10 6 10 10 11 12 12 11 10 9 8 7 7 8 8 9 12 14 15 15 16 16 16 16 15 14 13 14 13 11 12 12 12 12 11 11 10 9 9 10 10 8
14 16 15 13 10 9 8 10 3 5 6 7 8 7 6 6 6 6 6 6 7 8 9 10 11 12 13 13 14 14 13 13 13 13 13 12 12 12 12 12 12 11 11 11 11 11 11 11 11
Wind_Direction
336 336 302 277 237 187 141 130 160 153 146 115 132 182 176 115 4 68 107 144 139 141 140 138 127 125 121 117 113 111 110 108 106 105 103 101 100 98 97 94 92 92 91 88 86 82 80 78 77
346 326 288 283 250 214 157 158 181 150 116 126 126 150 163 110 57 103 140 148 146 142 142 137 128 129 125 121 117 114 113 112 110 108 106 104 102 100 99 96 93 92 92 90 87 85 82 79 78
342 348 324 242 231 239 147 159 166 125 132 154 138 120 65 92 125 139 144 150 148 143 140 132 133 131 128 124 121 118 116 116 113 110 109 106 103 101 99 96 93 91 90 89 88 86 84 81 79
316 329 274 241 212 215 281 138 159 151 157 157 159 137 107 63 135 140 145 153 149 144 142 137 137 135 132 129 127 125 122 120 117 114 111 108 105 102 100 97 95 93 91 90 89 87 85 82 80
11 266 217 222 219 188 232 191 176 172 168 161 174 146 123 89 115 140 150 155 151 147 144 142 138 136 134 133 130 127 123 121 120 116 112 110 108 105 102 100 98 95 94 92 91 89 87 83 80
120 206 223 222 216 207 212 181 179 185 169 162 174 153 120 111 146 149 153 157 153 149 146 143 132 133 132 130 129 126 124 121 123 119 116 114 112 109 106 103 101 98 96 95 93 90 87 84 80
179 200 227 228 223 222 184 172 193 185 184 176 174 159 137 155 156 153 155 155 155 152 151 150 148 142 131 124 122 120 117 115 117 117 111 106 105 105 104 103 103 101 98 96 93 90 87 84 81
177 192 212 219 222 220 153 169 209 196 173 137 181 183 163 163 156 153 153 156 157 159 158 156 154 153 150 140 122 117 112 109 107 105 100 98 101 100 99 107 103 102 100 98 94 89 86 83 79
175 209 218 214 216 202 157 180 154 147 140 158 197 264 112 142 153 156 159 164 166 167 166 163 159 157 153 147 135 129 118 113 118 114 113 125 126 121 114 97 99 103 102 101 97 91 88 91 87
179 215 220 215 216 184 170 196 169 177 181 184 184 156 144 151 164 170 175 176 177 176 174 170 167 162 157 148 153 150 147 147 149 144 144 138 127 115 113 100 92 93 97 102 96 96 103 95 85
185 214 217 205 201 199 179 188 179 202 211 211 201 173 162 168 176 182 185 185 184 179 176 177 174 169 164 159 163 159 156 154 155 154 151 142 136 135 136 132 129 123 124 116 115 118 84 66 51
187 214 207 196 176 196 195 177 192 221 235 277 216 168 169 178 186 189 189 188 185 184 183 181 180 177 174 169 170 169 166 165 163 163 163 158 151 149 146 146 140 139 131 121 115 99 82 63 45
201 200 199 194 189 218 207 213 226 237 243 254 163 167 180 187 192 194 193 190 188 189 187 185 184 183 179 176 176 179 177 175 169 167 172 174 165 160 156 152 154 150 144 143 132 109 79 37 16
200 200 194 197 204 205 223 235 229 249 220 195 182 186 191 194 193 193 195 194 193 193 191 188 189 188 185 185 185 184 183 178 179 178 179 182 179 171 168 166 168 167 164 155 154 84 359 347 340
164 198 222 219 212 203 223 246 233 241 196 208 205 202 200 202 198 200 199 198 195 194 192 191 191 191 191 192 192 189 187 185 188 185 184 186 188 183 182 180 181 178 177 183 203 220 266 301 315
180 211 226 211 205 193 216 251 243 211 208 221 216 209 207 208 208 207 204 203 197 193 193 191 190 194 194 195 196 193 192 191 193 192 189 192 193 193 191 192 191 185 191 204 215 239 267 283 309
194 215 221 213 202 190 215 250 252 198 216 230 223 215 212 213 213 212 208 205 201 197 194 192 192 195 195 196 198 198 196 198 197 195 197 196 196 198 200 200 195 190 197 208 211 235 260 289 306
196 207 212 217 195 200 223 243 247 222 225 241 238 227 218 218 217 211 209 207 204 202 199 196 194 196 194 193 198 200 204 205 204 202 203 200 199 199 203 204 200 196 201 206 211 220 225 272 302
207 206 214 220 197 210 234 246 250 247 240 246 243 235 228 227 223 211 209 207 206 205 203 201 197 196 191 190 193 197 205 205 207 208 207 205 203 199 202 203 202 200 208 211 209 210 220 230 254
208 212 217 212 191 223 248 253 254 250 248 247 246 240 235 232 217 208 207 206 208 208 206 206 204 199 196 195 194 196 198 208 209 205 208 208 205 202 203 206 203 201 206 208 202 202 210 202 203
212 216 211 198 158 216 268 262 251 246 242 244 244 243 241 232 225 212 206 207 208 211 209 207 206 204 201 200 197 193 197 198 202 208 208 208 207 205 202 207 205 202 203 207 202 200 207 212 194
210 208 199 185 196 222 221 266 253 244 240 237 236 235 235 231 228 222 210 208 209 212 210 210 209 207 204 202 202 200 203 208 209 206 206 206 206 207 204 205 205 204 203 207 203 199 204 210 203
189 160 170 188 213 241 220 253 260 235 242 238 234 233 233 231 227 223 216 212 211 209 209 210 210 210 207 204 206 207 215 218 214 209 208 206 204 207 205 204 204 204 204 205 198 195 198 201 205
132 113 90 93 191 244 230 233 261 229 236 239 236 233 233 231 228 227 222 215 214 209 208 209 210 212 209 207 209 211 214 215 212 208 206 204 201 202 205 202 204 203 200 201 198 194 192 193 195
163 152 165 188 208 237 207 224 252 240 230 234 239 237 234 231 229 225 221 215 213 208 207 207 209 212 210 209 211 213 215 215 215 211 209 202 199 200 201 198 200 200 198 194 188 185 185 188 186
189 187 193 199 210 211 185 233 252 238 241 246 252 255 254 244 235 230 225 218 215 210 207 207 210 213 210 210 212 213 214 214 216 213 208 205 202 201 198 195 195 193 188 183 179 175 174 176 175
182 203 205 153 87 229 220 246 272 243 247 244 244 246 248 244 238 236 233 226 221 215 210 209 211 213 212 211 211 212 212 213 213 209 208 207 202 194 192 187 185 184 180 175 168 166 165 162 159
185 166 161 185 189 228 241 241 245 217 226 233 237 241 247 249 244 237 232 227 225 222 217 214 216 216 214 213 212 211 211 212 211 206 203 200 195 189 184 181 178 175 172 166 161 154 158 153 147
166 178 187 195 222 223 240 247 224 227 227 237 245 249 256 258 255 249 242 233 226 221 217 215 216 217 215 213 212 210 211 209 207 205 201 195 188 185 183 178 172 170 167 162 159 157 157 153 147
189 189 184 190 201 223 247 258 160 228 255 259 269 276 274 274 269 259 247 232 221 217 215 216 216 216 216 212 210 209 207 203 202 202 196 188 184 182 179 172 169 167 164 163 161 159 161 158 156